[[{"header":{"parameterUnit":"m.s-1","parameterCategory":1,"la1":30.2992,"la2":30.254,"lo1":-89.0895,"lo2":-89.0443,"dy":0.0025,"dx":0.0025,"nx":19,"ny":19,"refTime":"2026-04-22T09:00:00:Z","depth":0,"parameterNumber":2,"parameterNumberName":"U-component_of_WINDS"},"data":[0,0,0,-5.4173,-5.4173,-5.4168,-5.4168,-5.4191,-5.4191,0,0,0,0,0,0,0,0,0,0,0,-5.4191,-5.4191,-5.4173,-5.4173,-5.4168,-5.4168,-5.4191,-5.4191,0,0,0,0,0,0,0,0,0,0,0,-5.419,-5.4191,-5.4192,-5.4173,-5.4168,-5.4168,-5.419,-5.4184,0,0,0,0,0,0,0,0,0,0,-5.4184,-5.4216,-5.4191,-5.4192,-5.4173,-5.4168,-5.4168,-5.4183,-5.4184,-5.4205,0,-5.4227,0,-5.421,-5.4194,-5.4195,0,0,0,-5.4161,-5.4215,-5.4199,-5.4192,-5.4173,-5.4168,-5.4167,-5.4184,-5.4185,-5.4207,-5.4227,-5.4227,-5.421,-5.4195,-5.4195,-5.4354,-5.4355,0,0,-5.4161,-5.4198,-5.4198,-5.4201,-5.4203,-5.4167,-5.4167,-5.4184,-5.4209,-5.4227,-5.4227,-5.421,-5.4195,-5.4195,-5.4353,-5.4354,0,0,0,-5.417,-5.4199,-5.4182,-5.4201,-5.4198,-5.4167,-5.4167,-5.4208,-5.4199,-5.4227,-5.4211,-5.4195,-5.4196,-5.4351,-5.4353,-5.4453,0,0,0,-5.417,-5.4204,-5.4183,-5.4206,-5.4198,-5.4203,-5.4191,-5.4198,-5.4199,-5.4211,-5.4195,-5.4196,-5.435,-5.4352,-5.4447,-5.4493,0,0,0,-5.4185,-5.4206,-5.4211,-5.4208,-5.4207,-5.4201,-5.4193,-5.4197,-5.4189,-5.4195,-5.4197,-5.4349,-5.4352,-5.4442,-5.4484,-5.4545,0,0,0,-5.4213,-5.43,-5.4213,-5.4305,-5.4208,-5.4265,-5.4193,-5.4233,-5.425,-5.4196,-5.435,-5.4353,-5.444,-5.4479,-5.4539,-5.46,-5.4629,0,0,-5.4343,-5.4317,-5.4368,-5.4291,-5.4372,-5.4262,-5.4359,-5.4338,-5.4305,-5.434,-5.4343,-5.4449,-5.4484,-5.4543,-5.4788,-5.4812,0,0,0,-5.4422,-5.4459,-5.4473,-5.4491,-5.4479,-5.4472,-5.4433,-5.4427,-5.4454,-5.4331,-5.4488,-5.4507,-5.4541,-5.4568,-5.4588,-5.4614,-5.4368,-5.4368,-5.4367,-5.4658,-5.4612,-5.4694,-5.4648,-5.4667,-5.4628,-5.4639,-5.4623,-5.457,-5.4609,-5.4617,-5.4772,-5.4805,-5.482,-5.4847,-5.4649,-5.4649,-5.465,-5.465,-5.4843,-5.4887,-5.4818,-5.4872,-5.4824,-5.4869,-5.4837,-5.4799,-5.4834,-5.4761,-5.4788,-5.4708,-5.4847,-5.4869,-5.4657,-5.4656,-5.4655,-5.4654,-5.4654,-5.4989,-5.5001,-5.4994,-5.5016,-5.504,-5.4993,-5.503,-5.4986,-5.4944,-5.4971,-5.4975,-5.4973,-5.4963,-5.4977,-5.4978,-5.4978,-5.4979,-5.4979,-5.4979,-5.5141,-5.5129,-5.5166,-5.5163,-5.517,-5.5174,-5.514,-5.5146,-5.5141,-5.5105,-5.5105,-5.5048,-5.4871,-5.4825,-5.4987,-5.4986,-5.4985,-5.4984,-5.4984,-5.5339,-5.5288,-5.5345,-5.5352,-5.5347,-5.5374,-5.5319,-5.5335,-5.5334,-5.5354,-5.5294,-5.5171,-5.514,-5.5124,-5.5085,-5.5305,-5.5305,-5.5305,-5.5305,-5.5459,-5.5441,-5.5489,-5.5504,-5.5514,-5.5472,-5.5538,-5.5515,-5.5482,-5.5479,-5.5442,-5.5389,-5.5374,-5.5352,-5.533,-5.5293,-5.5561,-5.5561,-5.5562,-5.5577,-5.5558,-5.5622,-5.559,-5.5584,-5.558,-5.5642,-5.5662,-5.5615,-5.5571,-5.5475,-5.5464,-5.5378,-5.5353,-5.5301,-5.5269,-5.5201,0,0]},{"header":{"parameterUnit":"m.s-1","parameterCategory":1,"la1":30.2992,"la2":30.254,"lo1":-89.0895,"lo2":-89.0443,"dy":0.0025,"dx":0.0025,"nx":19,"ny":19,"refTime":"2026-04-22T09:00:00:Z","depth":0,"parameterNumber":3,"parameterNumberName":"V-component_of_WINDS"},"data":[0,0,0,3.0764,3.0762,3.072,3.072,3.0641,3.064,0,0,0,0,0,0,0,0,0,0,0,3.0765,3.0764,3.0764,3.0762,3.072,3.072,3.0641,3.064,0,0,0,0,0,0,0,0,0,0,0,3.0766,3.0765,3.0764,3.0762,3.072,3.072,3.0642,3.0681,0,0,0,0,0,0,0,0,0,0,3.0727,3.0718,3.0765,3.0763,3.0762,3.072,3.072,3.0684,3.0679,3.0652,0,3.0627,0,3.0633,3.0634,3.0634,0,0,0,3.0769,3.0722,3.0721,3.0763,3.0761,3.072,3.0741,3.0681,3.0676,3.0645,3.0626,3.0624,3.0632,3.0633,3.0633,3.046,3.0459,0,0,3.0772,3.075,3.0725,3.0717,3.0726,3.0742,3.074,3.0678,3.0655,3.0626,3.0623,3.063,3.0633,3.0632,3.0461,3.046,0,0,0,3.0774,3.0752,3.0753,3.072,3.0714,3.0741,3.0738,3.0658,3.066,3.0622,3.0629,3.0632,3.0631,3.0463,3.0461,3.0385,0,0,0,3.0776,3.0753,3.0753,3.074,3.0715,3.0686,3.0718,3.0664,3.0658,3.063,3.0632,3.063,3.0464,3.0462,3.039,3.0352,0,0,0,3.0772,3.0753,3.0743,3.0739,3.072,3.0688,3.0687,3.0664,3.0662,3.0634,3.063,3.0465,3.0462,3.0395,3.036,3.0301,0,0,0,3.076,3.0674,3.0742,3.0648,3.072,3.0643,3.0687,3.0629,3.0596,3.0632,3.0464,3.0461,3.0396,3.0364,3.0306,3.0249,3.0223,0,0,3.0639,3.0659,3.0606,3.0665,3.057,3.0651,3.0544,3.0531,3.0545,3.0487,3.0483,3.0389,3.036,3.0302,3.0088,3.0067,0,0,0,3.056,3.0522,3.0501,3.0471,3.0462,3.045,3.0457,3.0453,3.0405,3.0512,3.0353,3.0336,3.0303,3.0277,3.0259,3.0232,3.0448,3.0449,3.0449,3.0357,3.0385,3.0298,3.0321,3.029,3.03,3.0276,3.0271,3.0304,3.0266,3.0249,3.0116,3.0084,3.0071,3.0043,3.0221,3.0221,3.0221,3.022,3.0183,3.0132,3.0183,3.0118,3.0146,3.009,3.0095,3.0121,3.0071,3.0131,3.0103,3.0165,3.0048,3.0024,3.0215,3.0216,3.0217,3.0217,3.0218,3.0052,3.0033,3.0032,2.9992,2.9957,2.9981,2.9933,2.9959,2.9983,2.9956,2.994,2.9942,2.9946,2.9947,2.9946,2.9946,2.9946,2.9945,2.9945,2.9917,2.9919,2.9877,2.9862,2.9846,2.9829,2.9839,2.9823,2.9812,2.9835,2.9835,2.9871,3.0033,3.0072,2.9938,2.9939,2.994,2.9941,2.9941,2.9729,2.9777,2.9711,2.9696,2.9682,2.9645,2.9681,2.9647,2.9638,2.9613,2.9656,2.9771,2.9791,2.9805,2.9838,2.9651,2.9651,2.9651,2.9651,2.9619,2.9634,2.9574,2.9548,2.9525,2.9552,2.9474,2.9481,2.9494,2.949,2.9521,2.9567,2.958,2.9592,2.9611,2.9642,2.9409,2.9409,2.9409,2.9505,2.9519,2.945,2.9468,2.9458,2.9449,2.9377,2.9342,2.9367,2.94,2.9487,2.9497,2.9572,2.9595,2.9628,2.9656,2.9714,0,0]}]]